STARLINK-35950 (66622 NORAD) Tracking and Keplerian Element Data

This shows tracking and keplerian element data for the satellite.

Feedback or suggestion? Click here.




ElementValue
Catalog66622
NameSTARLINK-35950
Epoch Orbit545
Epoch Day354.25003472
Epoch Year2025
RAAN151.4888
Inclination53.1596
Eccentricity0.0001064
Argument of Perigee92.9604
Mean Anonmoly64.6567
Mean Motion15.39591424
Decay Rate0.00048158
L11 66622U 25271F 25354.25003472 .00048158 00000+0 12075-2 0 9993
L22 66622 53.1596 151.4888 0001064 92.9604 64.6567 15.39591424 5450



Live tracking and technical data element details for STARLINK-35950 (NORAD 66622). STARLINK-35950 can be tracked NOW for your location showing map with azimuth and elevation plus other details from your city location.







IsCatalogInMostPopularTable: catalog: 66622, numindb: 17
Update: records affected: 1



GetName: 66622 STARLINK-35950

Hit Count: updated at: Wed, 15 Apr 2026 01:44:07 GMT